Location: Corralito
(14.1667°N, 87.1833°W)
Time: 22:18:09
(UTC+00:00)

Nadezhda 4 Rocket - Pass Details

Date: 05 October 2020
Orbit: 949 x 992 km, 82.9° (Epoch: 26 October)

Event Time Altitude Azimuth Distance (km) Brightness Sun altitude
Rises 01:23:19 0° 328° (NNW) 3,631 7.4 -26.9°
Reaches altitude 10° 01:26:47 10° 308° (NW) 2,693 7.0 -27.7°
Maximum altitude 01:30:27 17° 271° (W) 2,258 6.7 -28.6°
Drops below altitude 10° 01:34:09 10° 234° (SW) 2,709 6.9 -29.5°
Sets 01:37:41 0° 214° (SSW) 3,665 7.4 -30.4°
